sat.trackr.live / text

‹ back to catalog

STARLINK-36043

NORAD 66901 · 2025-283Z

PAYLOAD ACTIVE UNKNOWN

§ Identity

Operator
Country
US
Launch date
2025-12-04
Launch site
AFWTR
Launch vehicle
Mass (kg)
RCS (m²)

Purposes: comms

External: N2YO · Heavens-Above · Gunter

§ Orbital elements

Epoch: 2026-09-20T05:29:12.042240Z

Period
93.85 min
Inclination
53.1581°
Eccentricity
0.0000710
Mean motion
15.34416514 rev/d
Perigee alt
462.2 km
Apogee alt
463.1 km
Semi-major
6,840.8 km
B*
4.8671e-4
RAAN
196.6766°
Arg perigee
309.4569°
Mean anomaly
50.6370°
Rev number
4,568

§ Raw data

STARLINK-360431 66901U 25283Z   26263.22861160  .00016112  00000+0  48671-3 0  99962 66901  53.1581 196.6766 0000710 309.4569  50.6370 15.34416514 45680

JSON: /api/v1/satellites/66901 · /tle

For live sub-satellite position, see the globe view (requires WebGL).

§ Visibility from observer

Set your observer location to see the next 7 days of passes ≥ 10°. The values pass through the URL so the page stays shareable.

No JS? Fill the form by hand. The geolocation button needs JavaScript.